When you browse on this site, cookies collect data to enhance your experience and personalize the content and advertising you see.
Visit our Privacy Policy to learn more. By continuing to use the site, you agree to this use of cookies and data.
  • In Romania
  • List of Countries
  • For 7 days
  • Water Temperature
  • Satellite Maps
  • Weather Map
  • Weather Widgets
  • user-avatar
    Login

    Hourly Weather Bogdanovka

    Today, 17 January, Thursday

    Time Temperature Precipitation Wind Pressure Humidity
    00:00 -11°C° 0 mm 4 mps 734 mmHg 92%
    01:00 -11°C° 0 mm 4 mps 735 mmHg 93%
    02:00 -11°C° 0 mm 4 mps 735 mmHg 93%
    03:00 -10°C° 0 mm 3 mps 735 mmHg 95%
    04:00 -11°C° 0 mm 4 mps 735 mmHg 94%
    05:00 -10°C° 0 mm 4 mps 736 mmHg 93%
    06:00 -10°C° 0 mm 5 mps 736 mmHg 93%
    07:00 -11°C° 0 mm 5 mps 736 mmHg 93%
    08:00 -12°C° 0 mm 5 mps 737 mmHg 93%
    09:00 -12°C° 0 mm 5 mps 737 mmHg 93%
    10:00 -12°C° 0 mm 5 mps 737 mmHg 92%
    11:00 -11°C° 0 mm 6 mps 737 mmHg 91%
    12:00 -11°C° 0 mm 6 mps 737 mmHg 90%
    13:00 -11°C° 0 mm 7 mps 736 mmHg 90%
    14:00 -9°C° 0 mm 7 mps 736 mmHg 89%
    15:00 -8°C° 0 mm 7 mps 736 mmHg 88%
    16:00 -8°C° 0.1 mm 8 mps 736 mmHg 88%
    17:00 -10°C° 0.1 mm 8 mps 736 mmHg 89%
    18:00 -10°C° 0.1 mm 8 mps 735 mmHg 89%
    19:00 -9°C° 0.1 mm 9 mps 735 mmHg 89%
    20:00 -9°C° 0.1 mm 9 mps 734 mmHg 89%
    21:00 -8°C° 0.1 mm 9 mps 734 mmHg 89%
    22:00 -8°C° 0.1 mm 9 mps 733 mmHg 88%
    23:00 -6°C° 0.1 mm 9 mps 733 mmHg 87%

    Tomorrow, 18 January, Friday

    Time Temperature Precipitation Wind Pressure Humidity
    00:00 -5°C° 0.1 mm 9 mps 733 mmHg 86%
    01:00 -5°C° 0 mm 9 mps 733 mmHg 86%
    02:00 -5°C° 0 mm 9 mps 733 mmHg 87%
    03:00 -5°C° 0 mm 9 mps 733 mmHg 87%
    04:00 -4°C° 0 mm 9 mps 733 mmHg 88%
    05:00 -4°C° 0 mm 8 mps 734 mmHg 88%
    06:00 -4°C° 0 mm 8 mps 734 mmHg 88%
    07:00 -2°C° 0.1 mm 8 mps 734 mmHg 89%
    08:00 -2°C° 0.1 mm 7 mps 735 mmHg 89%
    09:00 -2°C° 0.1 mm 7 mps 735 mmHg 90%
    10:00 -2°C° 0 mm 7 mps 735 mmHg 90%
    11:00 -2°C° 0 mm 7 mps 736 mmHg 91%
    12:00 -2°C° 0 mm 6 mps 736 mmHg 91%
    13:00 -2°C° 0 mm 6 mps 736 mmHg 91%
    14:00 -2°C° 0 mm 6 mps 736 mmHg 91%
    15:00 -1°C° 0 mm 5 mps 736 mmHg 91%
    16:00 -2°C° 0 mm 6 mps 736 mmHg 91%
    17:00 -2°C° 0 mm 6 mps 736 mmHg 91%
    18:00 -2°C° 0 mm 7 mps 735 mmHg 92%
    19:00 -2°C° 0.2 mm 7 mps 735 mmHg 92%
    20:00 -2°C° 0.2 mm 7 mps 735 mmHg 91%
    21:00 -2°C° 0.2 mm 8 mps 734 mmHg 91%
    22:00 -2°C° 0.3 mm 8 mps 734 mmHg 91%
    23:00 -2°C° 0.3 mm 8 mps 734 mmHg 90%

    Day after tomorrow, 19 January, Saturday

    Time Temperature Precipitation Wind Pressure Humidity
    00:00 -2°C° 0.3 mm 8 mps 733 mmHg 90%
    01:00 -2°C° 0.1 mm 7 mps 734 mmHg 89%
    02:00 -2°C° 0.1 mm 7 mps 734 mmHg 88%
    03:00 -2°C° 0.1 mm 7 mps 734 mmHg 87%
    04:00 -3°C° 0 mm 6 mps 735 mmHg 87%
    05:00 -4°C° 0 mm 6 mps 735 mmHg 87%
    06:00 -5°C° 0 mm 6 mps 736 mmHg 87%
    07:00 -8°C° 0 mm 6 mps 737 mmHg 88%
    08:00 -8°C° 0 mm 5 mps 737 mmHg 89%
    09:00 -10°C° 0 mm 4 mps 738 mmHg 90%
    10:00 -10°C° 0 mm 4 mps 739 mmHg 91%
    11:00 -10°C° 0 mm 4 mps 739 mmHg 92%
    12:00 -11°C° 0 mm 4 mps 740 mmHg 92%
    13:00 -11°C° 0 mm 4 mps 740 mmHg 92%
    14:00 -11°C° 0 mm 5 mps 740 mmHg 92%
    15:00 -11°C° 0 mm 5 mps 740 mmHg 92%
    16:00 -11°C° 0 mm 5 mps 741 mmHg 91%
    17:00 -11°C° 0 mm 5 mps 741 mmHg 90%
    18:00 -11°C° 0 mm 5 mps 741 mmHg 89%
    19:00 -11°C° 0 mm 5 mps 742 mmHg 89%
    20:00 -11°C° 0 mm 5 mps 742 mmHg 89%
    21:00 -11°C° 0 mm 5 mps 742 mmHg 89%
    22:00 -11°C° 0 mm 5 mps 742 mmHg 89%
    23:00 -11°C° 0 mm 5 mps 743 mmHg 90%

    20 January, Sunday

    Time Temperature Precipitation Wind Pressure Humidity
    00:00 -10°C° 0 mm 4 mps 743 mmHg 90%
    01:00 -12°C° 0 mm 5 mps 743 mmHg 91%
    02:00 -12°C° 0 mm 5 mps 744 mmHg 92%
    03:00 -13°C° 0 mm 5 mps 744 mmHg 93%
    04:00 -12°C° 0 mm 4 mps 744 mmHg 93%
    05:00 -12°C° 0 mm 4 mps 744 mmHg 94%
    06:00 -14°C° 0 mm 4 mps 744 mmHg 95%
    07:00 -13°C° 0 mm 5 mps 744 mmHg 95%
    08:00 -13°C° 0 mm 5 mps 744 mmHg 94%
    09:00 -12°C° 0 mm 6 mps 744 mmHg 94%
    10:00 -12°C° 0 mm 6 mps 744 mmHg 93%
    11:00 -11°C° 0 mm 6 mps 744 mmHg 92%
    12:00 -12°C° 0 mm 7 mps 744 mmHg 91%
    13:00 -11°C° 0 mm 7 mps 744 mmHg 90%
    14:00 -11°C° 0 mm 7 mps 744 mmHg 89%
    15:00 -11°C° 0 mm 7 mps 743 mmHg 88%
    16:00 -11°C° 0 mm 7 mps 743 mmHg 88%
    17:00 -11°C° 0 mm 7 mps 743 mmHg 89%
    18:00 -12°C° 0 mm 7 mps 743 mmHg 89%
    19:00 -11°C° 0 mm 7 mps 743 mmHg 89%
    20:00 -11°C° 0 mm 7 mps 742 mmHg 88%
    21:00 -11°C° 0 mm 7 mps 742 mmHg 88%
    22:00 -11°C° 0 mm 7 mps 742 mmHg 88%
    23:00 -12°C° 0 mm 7 mps 742 mmHg 89%

    21 January, Monday

    Time Temperature Precipitation Wind Pressure Humidity
    00:00 -12°C° 0 mm 7 mps 742 mmHg 89%
    01:00 -14°C° 0 mm 6 mps 742 mmHg 89%
    02:00 -15°C° 0 mm 6 mps 742 mmHg 89%
    03:00 -15°C° 0 mm 5 mps 742 mmHg 89%
    04:00 -17°C° 0 mm 5 mps 741 mmHg 89%
    05:00 -17°C° 0 mm 5 mps 741 mmHg 89%
    06:00 -17°C° 0 mm 5 mps 741 mmHg 90%
    07:00 -17°C° 0 mm 4 mps 740 mmHg 91%
    08:00 -17°C° 0 mm 4 mps 740 mmHg 93%
    09:00 -17°C° 0 mm 4 mps 740 mmHg 95%
    10:00 -16°C° 0 mm 4 mps 740 mmHg 94%
    11:00 -14°C° 0 mm 4 mps 740 mmHg 93%
    12:00 -12°C° 0 mm 4 mps 740 mmHg 93%
    13:00 -12°C° 0.2 mm 3 mps 739 mmHg 93%
    14:00 -12°C° 0.2 mm 3 mps 739 mmHg 93%
    15:00 -10°C° 0.2 mm 3 mps 739 mmHg 93%
    16:00 -12°C° 0.1 mm 3 mps 739 mmHg 93%
    17:00 -12°C° 0.1 mm 3 mps 739 mmHg 94%
    18:00 -12°C° 0.1 mm 3 mps 739 mmHg 94%
    19:00 -14°C° 0 mm 4 mps 739 mmHg 94%
    20:00 -15°C° 0 mm 4 mps 740 mmHg 93%
    21:00 -16°C° 0 mm 4 mps 740 mmHg 92%
    22:00 -16°C° 0 mm 4 mps 741 mmHg 93%
    23:00 -17°C° 0 mm 4 mps 741 mmHg 94%

    22 January, Tuesday

    Time Temperature Precipitation Wind Pressure Humidity
    00:00 -17°C° 0 mm 3 mps 741 mmHg 95%
    01:00 -19°C° 0 mm 4 mps 742 mmHg 96%
    02:00 -20°C° 0 mm 4 mps 742 mmHg 96%
    03:00 -20°C° 0 mm 4 mps 742 mmHg 96%
    04:00 -22°C° 0 mm 4 mps 743 mmHg 96%
    05:00 -22°C° 0 mm 4 mps 743 mmHg 97%
    06:00 -22°C° 0 mm 4 mps 743 mmHg 97%
    07:00 -23°C° 0 mm 4 mps 743 mmHg 97%
    08:00 -23°C° 0 mm 4 mps 744 mmHg 97%
    09:00 -23°C° 0 mm 4 mps 744 mmHg 97%
    10:00 -22°C° 0 mm 4 mps 744 mmHg 96%
    11:00 -20°C° 0 mm 4 mps 745 mmHg 95%
    12:00 -19°C° 0 mm 4 mps 745 mmHg 94%
    13:00 -19°C° 0 mm 4 mps 745 mmHg 94%
    14:00 -19°C° 0 mm 4 mps 745 mmHg 93%
    15:00 -18°C° 0 mm 4 mps 745 mmHg 93%
    16:00 -19°C° 0 mm 4 mps 745 mmHg 94%
    17:00 -20°C° 0 mm 4 mps 745 mmHg 95%
    18:00 -21°C° 0 mm 3 mps 746 mmHg 96%
    19:00 -21°C° 0 mm 3 mps 746 mmHg 96%
    20:00 -22°C° 0 mm 3 mps 746 mmHg 97%
    21:00 -23°C° 0 mm 3 mps 746 mmHg 98%
    22:00 -23°C° 0 mm 3 mps 747 mmHg 98%
    23:00 -23°C° 0 mm 3 mps 747 mmHg 98%
    Show more